西村彗星

C/2021 O1 ( Nishimura )

English version
Home page
Updated on September 18, 2021

---------------------------------------------------------------------

・ プロフィール

発見日 2021年7月21日
発見光度 10.7等
発見者 西村栄男(静岡県掛川市)

・ 写真集

・ 軌道要素

Epoch 2021 Aug. 14.0 TT = JDT 2459440.5
T 2021 Aug. 13.92845 TT                                 Rudenko
q   0.7869899            (2000.0)            P               Q
z  -0.0002241      Peri.   74.45095     -0.36664709     -0.87812184
 +/-0.0025343      Node    41.60854     +0.57176877     -0.47329440
e   1.0001763      Incl.   27.57244     +0.73392805     -0.06996034
From 61 observations 2021 July 22-Aug. 5, mean residual 0".8.

・ 星図

・ 光度変化

        m1 = 9.0 + 5 logΔ + 10.0 log r

---------------------------------------------------------------------

軌道要素はM.P.E.C. 2021-R75に掲載されたものです。
星図はステラナビゲータ Ver.10 (アストロアーツ) で作成したものです。
光度グラフはComet for Windowsで作成したものです。

---------------------------------------------------------------------

Copyright(C) Seiichi Yoshida (comet@aerith.net). All rights reserved.